Home > Weather > Nashville > Past weeks

Flag for U.S.A. Weather for the Past 2 Weeks in Nashville, Tennessee, U.S.A.

Now
50 °F

Passing clouds.


Feels Like: 50 °F
Forecast: 27 / 52 °F
Wind: No wind

Location: Nashville International Airport

Current Time: Feb 6, 2016 at 5:39:03 PM

Latest Report: Feb 6, 2016 at 4:53 PM


Visibility: 10 mi

Pressure: 30.30 "Hg

Humidity: 26%

Dew point: 16 °F

Location of NashvilleLocation

Historic Weather in Nashville — Graph

°F

Nashville Temperature Yesterday

Maximum temperature yesterday: 49 °F (at 1:53 PM)
Minimum temperature yesterday: 24 °F (at 5:53 AM)
Average temperature yesterday: 36 °F

High & Low Weather Summary for the Past Weeks

 TemperatureHumidityPressure
High75 °F (Feb 2, 1:53 PM)96% (Feb 2, 5:53 AM)30.50 "Hg (Feb 2, 5:53 AM)
Low12 °F (Jan 24, 6:53 AM)22% (Feb 5, 2:53 PM)29.65 "Hg (Feb 2, 9:53 PM)
Average43 °F63%30.08 "Hg
* Reported Jan 22 3:53 PM — Feb 6 3:53 PM, Nashville, Weather by CustomWeather, © 2016

Note: Actual official high and low records may vary slightly from our data, if they occured in-between our weather recording intervals... More about our weather records

Advertising

Nashville Weather History for the Previous 24 Hours

 ConditionsComfort  
Time TempWeatherWind HumidityBarometerVisibility
3:53 PM
Sat, Feb 6
51 °FPartly sunny.No wind25%30.31 "Hg10 mi
2:53 PM51 °FMostly cloudy.No wind25%30.31 "Hg10 mi
1:53 PM52 °FMostly cloudy.5 mph23%30.31 "Hg10 mi
12:53 PM52 °FPartly sunny.3 mph24%30.33 "Hg10 mi
11:53 AM52 °FPartly sunny.No wind24%30.36 "Hg10 mi
10:53 AM50 °FPartly sunny.No wind26%30.40 "Hg10 mi
9:53 AM45 °FBroken clouds.3 mph35%30.42 "Hg10 mi
8:53 AM38 °FBroken clouds.No wind53%30.42 "Hg10 mi
7:53 AM31 °FBroken clouds.No wind73%30.41 "Hg10 mi
6:53 AM27 °FScattered clouds.3 mph78%30.40 "Hg10 mi
5:53 AM28 °FScattered clouds.No wind75%30.39 "Hg10 mi
4:53 AM29 °FPassing clouds.No wind75%30.38 "Hg10 mi
3:53 AM30 °FPassing clouds.No wind72%30.37 "Hg10 mi
2:53 AM30 °FPassing clouds.No wind72%30.38 "Hg10 mi
1:53 AM32 °FPassing clouds.No wind66%30.39 "Hg10 mi
12:53 AM33 °FPassing clouds.3 mph63%30.38 "Hg10 mi
11:53 PM
Fri, Feb 5
36 °FPassing clouds.No wind52%30.38 "Hg10 mi
10:53 PM36 °FPassing clouds.5 mph52%30.39 "Hg10 mi
9:53 PM35 °FPassing clouds.6 mph59%30.39 "Hg10 mi
8:53 PM36 °FPassing clouds.5 mph52%30.39 "Hg10 mi
7:53 PM40 °FPassing clouds.3 mph40%30.41 "Hg10 mi
6:53 PM44 °FPassing clouds.No wind29%30.42 "Hg10 mi
5:53 PM43 °FPassing clouds.No wind35%30.41 "Hg10 mi
Weather by CustomWeather, © 2016

See weather overviewHow to use our weather pages